TimeEDT,TemperatureF,Dew PointF,Humidity,Sea Level PressureIn,VisibilityMPH,Wind Direction,Wind SpeedMPH,Gust SpeedMPH,PrecipitationIn,Events,Conditions,WindDirDegrees,DateUTC
12:54 AM,73.9,68.0,82,30.24,10.0,WNW,4.6,-,N/A,,Clear,290,2013-07-15 04:54:00
1:54 AM,73.9,66.9,79,30.23,10.0,West,5.8,-,N/A,,Clear,270,2013-07-15 05:54:00
2:54 AM,73.0,68.0,84,30.22,10.0,WSW,6.9,-,N/A,,Clear,250,2013-07-15 06:54:00
3:54 AM,72.0,69.1,91,30.22,10.0,West,6.9,-,N/A,,Partly Cloudy,270,2013-07-15 07:54:00
4:54 AM,72.0,70.0,93,30.22,10.0,WNW,9.2,-,N/A,,Clear,290,2013-07-15 08:54:00
5:54 AM,72.0,70.0,93,30.22,10.0,WNW,10.4,-,N/A,,Clear,300,2013-07-15 09:54:00
6:54 AM,72.0,70.0,93,30.23,10.0,WNW,8.1,-,N/A,,Clear,300,2013-07-15 10:54:00
7:54 AM,75.9,70.0,82,30.23,10.0,WNW,9.2,-,N/A,,Clear,300,2013-07-15 11:54:00
8:54 AM,80.1,69.1,69,30.23,10.0,NW,10.4,-,N/A,,Clear,320,2013-07-15 12:54:00
9:54 AM,82.0,69.1,65,30.22,10.0,North,8.1,-,N/A,,Clear,10,2013-07-15 13:54:00
10:54 AM,84.0,70.0,63,30.21,10.0,NW,8.1,-,N/A,,Mostly Cloudy,320,2013-07-15 14:54:00
11:54 AM,84.9,68.0,57,30.20,10.0,NW,10.4,-,N/A,,Partly Cloudy,310,2013-07-15 15:54:00
12:54 PM,84.9,66.9,55,30.19,10.0,NW,9.2,-,N/A,,Mostly Cloudy,320,2013-07-15 16:54:00
1:54 PM,88.0,66.0,48,30.18,10.0,North,-9999.0,-,N/A,,Partly Cloudy,0,2013-07-15 17:54:00
2:54 PM,86.0,66.9,53,30.17,10.0,NW,6.9,-,N/A,,Partly Cloudy,320,2013-07-15 18:54:00
3:54 PM,88.0,64.9,46,30.16,10.0,North,8.1,-,N/A,,Scattered Clouds,350,2013-07-15 19:54:00
4:54 PM,87.1,64.0,46,30.15,10.0,NW,6.9,-,N/A,,Mostly Cloudy,310,2013-07-15 20:54:00
5:54 PM,88.0,66.9,49,30.14,10.0,WNW,9.2,-,N/A,,Clear,300,2013-07-15 21:54:00
6:54 PM,87.1,66.9,51,30.14,10.0,WNW,5.8,-,N/A,,Clear,300,2013-07-15 22:54:00
7:54 PM,82.9,68.0,60,30.14,10.0,WNW,6.9,-,N/A,,Clear,300,2013-07-15 23:54:00
8:54 PM,78.1,68.0,71,30.15,10.0,NW,9.2,-,N/A,,Clear,310,2013-07-16 00:54:00
9:54 PM,77.0,68.0,74,30.16,10.0,WNW,8.1,-,N/A,,Clear,300,2013-07-16 01:54:00
10:54 PM,75.9,66.9,74,30.16,10.0,NW,9.2,-,N/A,,Clear,310,2013-07-16 02:54:00
11:54 PM,75.9,68.0,76,30.16,10.0,WNW,9.2,-,N/A,,Clear,300,2013-07-16 03:54:00